Regional Weather Roundup
Issued by NWS

Home | Current Version | Previous Version | Graphics & Text | Print | Product List | Glossary On
Versions: 1 2 3 4 5 6 7 8 9 10 11 12 13 14 15 16 17 18 19 20 21 22 23 24 25 26 27 28 29 30 31 32 33 34 35 36 37 38 39 40 41 42 43 44 45 46 47 48 49 50
000
ASUS45 KBOI 311710
RWRID
WEATHER ROUNDUP FOR IDAHO
NATIONAL WEATHER SERVICE BOISE ID
1000 AM MST SAT JAN 31 2015

NOTE: "FAIR" INDICATES FEW OR NO CLOUDS BELOW 12000 FEET
WITH NO SIGNIFICANT WEATHER AND/OR OBSTRUCTIONS TO VISIBILITY

IDZ012-014-311800-
SOUTHWEST IDAHO


CITY           SKY/WX    TMP DP  RH WIND       PRES   REMARKS
BOISE          SUNNY     32  27  81 CALM      30.18R
CALDWELL       MOSUNNY   28  21  74 CALM      30.20S
MOUNTAIN HOME  FRZ DRZL  29  28  96 NE2       30.16R VSB<1/4
$$

IDZ016-017-311800-
SOUTHCENTRAL IDAHO


CITY           SKY/WX    TMP DP  RH WIND       PRES   REMARKS
BURLEY         CLOUDY    36  28  73 W10       30.11F WCI  28
JEROME         CLOUDY    32  28  85 SW7       30.13R WCI  26
TWIN FALLS     SUNNY     38  28  67 SW10      30.12S WCI  31
$$

IDZ019>023-311800-
SOUTHEAST IDAHO


CITY           SKY/WX    TMP DP  RH WIND       PRES   REMARKS
IDAHO FALLS    CLOUDY    27  25  92 W8        30.11R WCI  19
POCATELLO      CLOUDY    31  30  96 W9        30.13R WCI  23
REXBURG        CLOUDY    24  23  96 NE5       30.11R WCI  18
$$

IDZ006-010-011-018-031-032-311800-
CENTRAL IDAHO MOUNTAINS


CITY           SKY/WX    TMP DP  RH WIND       PRES   REMARKS
MCCALL         SUNNY     16  13  88 CALM      30.13R
HAILEY         MOSUNNY   19  10  68 CALM      30.10S
STANLEY          N/A      1  -3  83 CALM      30.19R
SALMON         CLOUDY    27  19  74 N5        30.23R WCI  21
CHALLIS        CLOUDY    23  17  78 S5        30.18S WCI  17
$$

IDZ002-004-006-007-026-311800-
NORTHERN IDAHO


CITY           SKY/WX    TMP DP  RH WIND       PRES   REMARKS
LEWISTON       CLOUDY    35  33  92 CALM      30.31S
LOWELL           N/A     35  29  78 CALM      30.33R
COEUR D`ALENE  CLOUDY    30  27  86 SW5       30.26R WCI  25
MULLAN PASS    HAZE      23  18  81 N7        30.07R VSB 1/2 WCI  15
$$



USA.gov is the U.S. government's official web portal to all federal, state and local government web resources and services.